Sterling, IL

1:20 AM CST on November 17, 2019 (GMT -0600)
Whiteside County-Bittorf

Weather History for KSQI - July, 2019

Change the Weather History Date:

Tuesday, July 16, 2019

  Actual Average Record
Temperature  
Mean Temperature 78 °F -  
Max Temperature 87 °F 81 °F 96 °F (2012)
Min Temperature 69 °F 60 °F 51 °F (2014)
Cooling Degree Days 13    
Growing Degree Days 28 (Base 50)    
Moisture  
Dew Point 71 °F    
Average Humidity 86    
Maximum Humidity 100    
Minimum Humidity 63    
Precipitation  
Precipitation 0.00 in - - ()
Sea Level Pressure  
Sea Level Pressure 29.73 in    
Wind  
Wind Speed 3 mph (North)    
Max Wind Speed 9 mph    
Max Gust Speed -    
Visibility 9 miles    
Events Rain    
Averages and records for this station are not official NWS values.
T = Trace of Precipitation, MM = Missing Value Source: NWS Daily Summary

Daily Weather History Graph

Daily Weather History Graph

Search for Another Location

Airport or City:

Astronomy

Jul. 16, 2019 Rise Set
Actual Time 5:37 AM CDT 8:31 PM CDT
Civil Twilight 5:04 AM CDT 9:04 PM CDT
Nautical Twilight 4:23 AM CDT 9:45 PM CDT
Astronomical Twilight 3:34 AM CDT 10:34 PM CDT
Moon 8:37 PM CDT (7/16) 5:15 AM CDT (7/16)
Length of Visible Light 15h 59m
Length of Day
14h 53m
Full, 100% of the Moon is Illuminated
Jul 16
Full
Jul 16
Full
Jul 24
Last Quarter
Jul 31
New
Aug 7
First Quarter

Hourly Weather History & Observations

Time (CDT) Temp. Heat Index Dew Point Humidity Pressure Visibility Wind Dir Wind Speed Gust Speed Precip Events Conditions
12:07 AM 73.4 °F - 68.0 °F 83% 30.00 in 10.0 mi Calm Calm - N/A   Overcast
12:34 AM 73.4 °F - 68.0 °F 83% 29.99 in 10.0 mi SSE 3.5 mph - N/A   Overcast
12:56 AM 73.0 °F - 68.0 °F 84% 29.57 in 10.0 mi Calm Calm - N/A   Overcast
1:20 AM 73.4 °F - 68.0 °F 83% 29.97 in 10.0 mi SSE 4.6 mph - N/A   Overcast
1:27 AM 73.4 °F - 68.0 °F 83% 29.97 in 10.0 mi SSE 4.6 mph - N/A   Overcast
1:56 AM 72.0 °F - 69.1 °F 91% 29.56 in 10.0 mi SE 6.9 mph - N/A   Overcast
2:03 AM 71.6 °F - 69.8 °F 94% 29.97 in 10.0 mi SSE 5.8 mph - N/A   Overcast
2:16 AM 71.6 °F - 69.8 °F 94% 29.96 in 10.0 mi SE 5.8 mph - N/A   Overcast
2:31 AM 71.6 °F - 69.8 °F 94% 29.95 in 10.0 mi SSE 4.6 mph - N/A   Overcast
2:56 AM 72.0 °F - 69.1 °F 91% 29.55 in 10.0 mi SE 4.6 mph - N/A   Overcast
3:39 AM 71.6 °F - 69.8 °F 94% 29.94 in 10.0 mi SE 5.8 mph - N/A   Overcast
3:56 AM 71.1 °F - 69.1 °F 93% 29.53 in 10.0 mi Calm Calm - N/A   Overcast
4:40 AM 69.8 °F - 69.8 °F 100% 29.93 in 7.0 mi Calm Calm - N/A   Mostly Cloudy
4:56 AM 71.1 °F - 70.0 °F 96% 29.52 in 8.0 mi ESE 3.5 mph - N/A   Overcast
5:49 AM 71.6 °F - 69.8 °F 94% 29.91 in 9.0 mi Calm Calm - N/A   Overcast
5:56 AM 71.1 °F - 70.0 °F 96% 29.51 in 7.0 mi ESE 3.5 mph - N/A   Overcast
6:38 AM 71.6 °F - 69.8 °F 94% 29.91 in 8.0 mi Variable 3.5 mph - N/A   Scattered Clouds
6:42 AM 71.6 °F - 69.8 °F 94% 29.91 in 7.0 mi SE 5.8 mph - N/A   Mostly Cloudy
6:56 AM 71.1 °F - 70.0 °F 96% 29.50 in 7.0 mi Variable 4.6 mph - N/A   Mostly Cloudy
7:56 AM 73.9 °F - 72.0 °F 93% 29.52 in 8.0 mi Variable 3.5 mph - N/A   Overcast
8:38 AM 75.2 °F - 71.6 °F 89% 29.93 in 10.0 mi Calm Calm - N/A   Overcast
8:56 AM 75.0 °F - 72.0 °F 90% 29.52 in 10.0 mi Variable 3.5 mph - N/A   Overcast
9:56 AM 75.9 °F - 72.0 °F 87% 29.54 in 10.0 mi WNW 4.6 mph - N/A   Overcast
10:23 AM 75.2 °F - 71.6 °F 89% 29.94 in 10.0 mi NW 6.9 mph - N/A   Overcast
10:40 AM 75.2 °F - 71.6 °F 89% 29.94 in 5.0 mi WNW 9.2 mph - 0.00 in Rain Light Rain
10:48 AM 75.2 °F - 73.4 °F 94% 29.94 in 4.0 mi NW 5.8 mph - 0.00 in Rain Light Rain
10:56 AM 73.9 °F - 73.0 °F 97% 29.54 in 4.0 mi NW 6.9 mph - 0.00 in Rain Light Rain
11:11 AM 73.4 °F - 71.6 °F 94% 29.94 in 3.0 mi NW 4.6 mph - 0.00 in   Overcast
11:33 AM 73.4 °F - 73.4 °F 100% 29.94 in 4.0 mi NW 4.6 mph - 0.00 in   Overcast
11:44 AM 75.2 °F - 75.2 °F 100% 29.94 in 6.0 mi NNW 5.8 mph - 0.00 in   Overcast
11:56 AM 77.0 °F - 73.9 °F 90% 29.54 in 9.0 mi North 4.6 mph - 0.00 in   Overcast
12:27 PM 80.6 °F 85.4 °F 73.4 °F 79% 29.93 in 10.0 mi NW 6.9 mph - N/A   Overcast
12:45 PM 80.6 °F 85.4 °F 73.4 °F 79% 29.93 in 10.0 mi NW 8.1 mph - N/A   Overcast
12:56 PM 81.0 °F 85.8 °F 73.0 °F 77% 29.52 in 10.0 mi NNW 4.6 mph - N/A   Overcast
1:56 PM 84.0 °F 91.2 °F 73.9 °F 72% 29.50 in 9.0 mi Variable 4.6 mph - N/A   Mostly Cloudy
2:09 PM 82.4 °F 88.2 °F 73.4 °F 74% 29.90 in 10.0 mi North 5.8 mph - N/A   Mostly Cloudy
2:56 PM 82.9 °F 88.8 °F 73.0 °F 72% 29.49 in 10.0 mi NNW 3.5 mph - N/A   Overcast
3:21 PM 84.2 °F 90.9 °F 73.4 °F 70% 29.88 in 10.0 mi Calm Calm - N/A   Mostly Cloudy
3:56 PM 82.9 °F 88.8 °F 73.0 °F 72% 29.47 in 10.0 mi Calm Calm - N/A   Mostly Cloudy
4:22 PM 86.0 °F 93.4 °F 73.4 °F 66% 29.87 in 10.0 mi Calm Calm - N/A   Overcast
4:38 PM 84.2 °F 90.9 °F 73.4 °F 70% 29.87 in 10.0 mi East 3.5 mph - N/A   Overcast
4:56 PM 84.0 °F 91.2 °F 73.9 °F 72% 29.47 in 10.0 mi ENE 4.6 mph - N/A   Mostly Cloudy
5:56 PM 87.1 °F 94.5 °F 73.0 °F 63% 29.46 in 10.0 mi WNW 3.5 mph - N/A   Partly Cloudy
6:56 PM 84.0 °F 90.2 °F 73.0 °F 69% 29.46 in 10.0 mi NE 3.5 mph - N/A   Clear
7:56 PM 80.1 °F 84.5 °F 73.9 °F 81% 29.48 in 10.0 mi Calm Calm - N/A   Clear
8:56 PM 77.0 °F - 73.0 °F 88% 29.47 in 10.0 mi Calm Calm - N/A   Clear
9:56 PM 75.9 °F - 73.0 °F 91% 29.49 in 10.0 mi Calm Calm - N/A   Clear
10:56 PM 73.0 °F - 71.1 °F 93% 29.48 in 10.0 mi Calm Calm - N/A   Clear
11:56 PM 73.0 °F - 72.0 °F 96% 29.49 in 10.0 mi Calm Calm - N/A   Clear